[[{"header":{"parameterUnit":"m.s-1","parameterCategory":1,"la1":30.2991,"la2":30.254,"lo1":-89.0895,"lo2":-89.0444,"dy":0.0017,"dx":0.0017,"nx":28,"ny":28,"refTime":"2024-04-29T21:00:00:Z","depth":0,"parameterNumber":2,"parameterNumberName":"U-component_of_WINDS"},"data":[0,0,0,0,0,0,0,0,0,0,0,0,0,0,0,0,0,0,0,0,0,0,0,0,0,0,0,0,0,0,0,0,0,0,0,0,0,0,0,0,0,0,0,0,0,0,0,0,0,0,0,0,0,0,0,0,0,0,-1.4086,-1.4085,0,-1.4054,-1.4054,-1.4054,-1.4016,-1.4016,-1.4015,-1.4015,-1.398,-1.398,-1.398,0,0,0,0,0,0,0,0,0,0,0,0,0,-1.4112,-1.4112,-1.4086,-1.4085,-1.4085,-1.4054,-1.4054,-1.4054,-1.4016,-1.4016,-1.4015,-1.4014,-1.3981,-1.398,-1.398,0,0,0,0,0,0,0,0,0,0,0,0,0,-1.4093,-1.4112,-1.4086,-1.4063,-1.406,-1.4054,-1.4054,-1.4053,-1.4016,-1.4016,-1.4015,-1.4014,-1.3981,-1.398,-1.398,-1.3993,0,0,-1.3978,-1.3978,0,0,0,0,0,0,0,0,-1.4094,-1.4092,-1.4067,-1.4064,-1.4062,-1.4038,-1.4051,-1.4033,-1.4017,-1.4033,-1.4015,-1.4014,-1.4,-1.3998,-1.3994,-1.3992,-1.399,-1.3978,-1.3977,-1.3977,-1.3977,0,0,0,0,0,0,0,-1.4095,-1.4093,-1.4073,-1.4066,-1.4063,-1.4053,-1.405,-1.4047,-1.4022,-1.4032,-1.4029,-1.4026,-1.3999,-1.3995,-1.3993,-1.399,-1.3978,-1.3977,-1.3977,-1.3977,-1.3997,-1.3998,0,0,0,0,0,0,-1.41,-1.4094,-1.4074,-1.4072,-1.4076,-1.4054,-1.405,-1.4047,-1.4022,-1.4017,-1.4026,-1.4024,-1.3996,-1.3994,-1.3992,-1.4006,-1.3977,-1.3977,-1.3976,-1.3996,-1.3997,-1.3998,0,0,0,0,0,0,-1.4101,-1.4099,-1.4075,-1.4082,-1.4079,-1.4054,-1.4051,-1.4046,-1.4042,-1.4018,-1.4013,-1.4027,-1.3995,-1.3992,-1.3993,-1.4004,-1.3976,-1.3976,-1.3995,-1.3996,-1.3997,-1.4035,0,0,0,0,0,0,-1.4102,-1.4099,-1.4105,-1.4083,-1.4079,-1.4078,-1.4052,-1.4047,-1.4042,-1.4038,-1.4017,-1.4013,-1.3994,-1.3994,-1.3993,-1.4003,-1.3976,-1.3994,-1.3995,-1.3997,-1.4032,-1.4037,-1.4041,0,0,0,0,0,-1.4103,-1.4116,-1.4105,-1.4103,-1.4085,-1.4079,-1.4077,-1.4056,-1.4043,-1.4048,-1.4032,-1.4013,-1.4003,-1.3995,-1.3993,-1.4003,-1.3993,-1.3995,-1.3997,-1.403,-1.4036,-1.4041,0,0,0,0,0,0,-1.4139,-1.4113,-1.41,-1.4107,-1.4096,-1.4073,-1.4078,-1.4062,-1.4054,-1.4051,-1.4025,-1.402,-1.4024,-1.4013,-1.4004,-1.4014,-1.3995,-1.3997,-1.4021,-1.4027,-1.4031,-1.4034,-1.3975,0,0,0,0,0,-1.4148,-1.4146,-1.4123,-1.4131,-1.4126,-1.4103,-1.41,-1.4085,-1.4072,-1.4067,-1.4051,-1.4039,-1.4032,-1.4029,-1.4022,-1.4031,-1.4025,-1.4036,-1.4041,-1.4045,-1.4046,-1.405,-1.4054,-1.4004,-1.4004,-1.4004,0,0,-1.4165,-1.4151,-1.4151,-1.4137,-1.4127,-1.4125,-1.4099,-1.4098,-1.4097,-1.4066,-1.4066,-1.4054,-1.4039,-1.4044,-1.4045,-1.4035,-1.4059,-1.4047,-1.405,-1.405,-1.4052,-1.4057,-1.4061,-1.4006,-1.4005,-1.4005,0,0,-1.4197,-1.4186,-1.4192,-1.4182,-1.4166,-1.4151,-1.4153,-1.4133,-1.4124,-1.4123,-1.4101,-1.4098,-1.4088,-1.4078,-1.4071,-1.41,-1.4082,-1.4098,-1.4121,-1.4125,-1.4129,-1.4132,-1.4142,-1.4146,-1.41,-1.41,-1.41,0,-1.4221,-1.4218,-1.4196,-1.4197,-1.4191,-1.4165,-1.417,-1.4161,-1.4144,-1.414,-1.4129,-1.4117,-1.4104,-1.4106,-1.4113,-1.4109,-1.4109,-1.41,-1.413,-1.4133,-1.4136,-1.4145,-1.4149,-1.4102,-1.4102,-1.4101,-1.4101,0,-1.4248,-1.4246,-1.4253,-1.4238,-1.4233,-1.4236,-1.4214,-1.4211,-1.4197,-1.4183,-1.4183,-1.4167,-1.4157,-1.4156,-1.4141,-1.4156,-1.415,-1.4135,-1.4115,-1.4143,-1.4151,-1.4154,-1.4105,-1.4104,-1.4103,-1.4103,0,0,-1.4301,-1.4275,-1.4277,-1.427,-1.4251,-1.4249,-1.4251,-1.4241,-1.424,-1.4229,-1.4229,-1.4222,-1.4208,-1.42,-1.4184,-1.4188,-1.4211,-1.4172,-1.4171,-1.418,-1.4226,-1.4237,-1.4242,-1.4199,-1.42,-1.42,-1.4227,0,-1.433,-1.4331,-1.4312,-1.4319,-1.4316,-1.4291,-1.4292,-1.4281,-1.4268,-1.4264,-1.4249,-1.4244,-1.4226,-1.4221,-1.4223,-1.4208,-1.422,-1.4206,-1.4199,-1.4199,-1.4204,-1.4246,-1.4258,-1.4284,-1.423,-1.423,-1.4231,0,-1.4363,-1.4355,-1.4361,-1.4342,-1.4341,-1.4342,-1.4332,-1.4329,-1.4315,-1.4305,-1.4297,-1.4279,-1.4279,-1.426,-1.4259,-1.425,-1.4246,-1.4238,-1.4238,-1.4237,-1.4217,-1.4245,-1.4291,-1.4295,-1.4236,-1.4235,-1.4235,0,-1.4401,-1.4391,-1.4394,-1.4389,-1.4367,-1.4369,-1.436,-1.4345,-1.434,-1.4331,-1.4328,-1.4318,-1.4313,-1.4306,-1.4286,-1.4274,-1.4287,-1.4267,-1.4278,-1.4279,-1.4282,-1.4282,-1.4328,-1.428,-1.428,-1.428,-1.428,0,-1.4434,-1.4439,-1.4411,-1.4413,-1.4418,-1.4395,-1.44,-1.4389,-1.4376,-1.4375,-1.4352,-1.4351,-1.4324,-1.432,-1.4304,-1.4305,-1.4303,-1.4295,-1.4291,-1.4297,-1.4298,-1.4294,-1.4292,-1.4281,-1.428,-1.428,-1.428,0,-1.4478,-1.4459,-1.446,-1.444,-1.4435,-1.4439,-1.4421,-1.4422,-1.4407,-1.4406,-1.4404,-1.4382,-1.4376,-1.4355,-1.4343,-1.4333,-1.4339,-1.4331,-1.4344,-1.4341,-1.4354,-1.4353,-1.4399,-1.4404,-1.4353,-1.4353,-1.4353,0,-1.45,-1.4504,-1.4484,-1.4481,-1.4473,-1.447,-1.4466,-1.4443,-1.4439,-1.4424,-1.4426,-1.4419,-1.4411,-1.4403,-1.4385,-1.4376,-1.4367,-1.4384,-1.4366,-1.4372,-1.4367,-1.4368,-1.4368,-1.4388,-1.4389,-1.4389,-1.439,0,-1.4542,-1.4533,-1.4528,-1.4519,-1.4515,-1.4507,-1.4497,-1.4497,-1.4472,-1.4469,-1.4463,-1.4457,-1.4446,-1.4438,-1.4427,-1.4416,-1.4399,-1.4396,-1.4398,-1.4404,-1.4412,-1.4408,-1.4355,-1.4395,-1.4394,-1.4394,-1.4393,-1.4393,-1.4576,-1.4578,-1.4564,-1.4559,-1.455,-1.4542,-1.4541,-1.4527,-1.4522,-1.4512,-1.4498,-1.4494,-1.448,-1.4462,-1.4454,-1.4449,-1.444,-1.4443,-1.4444,-1.4445,-1.4448,-1.4413,-1.4447,-1.4447,-1.4447,-1.4447,-1.4446,0,-1.4617,-1.4607,-1.4602,-1.459,-1.4586,-1.4571,-1.456,-1.4557,-1.4554,-1.4542,-1.4536,-1.4529,-1.4522,-1.4503,-1.4494,-1.4494,-1.4486,-1.4493,-1.4492,-1.449,-1.4457,-1.4456,-1.4499,-1.4499,-1.4499,-1.4499,-1.4499,-1.4499,-1.4637,-1.464,-1.4629,-1.4627,-1.4616,-1.4613,-1.4608,-1.46,-1.4591,-1.4584,-1.4578,-1.4567,-1.4552,-1.4542,-1.4534,-1.4529,-1.4527,-1.4536,-1.4528,-1.4497,-1.4492,-1.4488,-1.4487,-1.4536,-1.4536,-1.4561,-1.4562,-1.4562]},{"header":{"parameterUnit":"m.s-1","parameterCategory":1,"la1":30.2991,"la2":30.254,"lo1":-89.0895,"lo2":-89.0444,"dy":0.0017,"dx":0.0017,"nx":28,"ny":28,"refTime":"2024-04-29T21:00:00:Z","depth":0,"parameterNumber":3,"parameterNumberName":"V-component_of_WINDS"},"data":[0,0,0,0,0,0,0,0,0,0,0,0,0,0,0,0,0,0,0,0,0,0,0,0,0,0,0,0,0,0,0,0,0,0,0,0,0,0,0,0,0,0,0,0,0,0,0,0,0,0,0,0,0,0,0,0,0,0,1.1936,1.1936,0,1.1903,1.1902,1.1902,1.1883,1.1883,1.1883,1.1883,1.1846,1.1845,1.1844,0,0,0,0,0,0,0,0,0,0,0,0,0,1.1982,1.1981,1.1936,1.1936,1.1935,1.1903,1.1902,1.1902,1.1883,1.1883,1.1883,1.1883,1.1847,1.1845,1.1844,0,0,0,0,0,0,0,0,0,0,0,0,0,1.1956,1.1981,1.1936,1.1922,1.1921,1.1903,1.1902,1.1902,1.1883,1.1883,1.1883,1.1883,1.1847,1.1846,1.1844,1.1837,0,0,1.184,1.1839,0,0,0,0,0,0,0,0,1.1958,1.1955,1.1925,1.1923,1.1922,1.1897,1.1905,1.188,1.1883,1.1898,1.1883,1.1883,1.1863,1.186,1.1854,1.1835,1.1833,1.184,1.1839,1.1838,1.1838,0,0,0,0,0,0,0,1.196,1.1956,1.1923,1.1924,1.1922,1.1917,1.1913,1.19,1.1881,1.1896,1.1895,1.1891,1.1862,1.1856,1.1853,1.1833,1.184,1.1838,1.1838,1.1837,1.1805,1.1805,0,0,0,0,0,0,1.1964,1.1958,1.1924,1.1922,1.194,1.1916,1.1912,1.1905,1.1881,1.1877,1.1891,1.1891,1.1858,1.1855,1.1852,1.1841,1.1838,1.1837,1.1836,1.1805,1.1805,1.1805,0,0,0,0,0,0,1.1965,1.1961,1.1925,1.1939,1.1934,1.1915,1.1908,1.1904,1.1898,1.1877,1.1874,1.1888,1.1858,1.1854,1.184,1.1839,1.1836,1.1835,1.1805,1.1805,1.1805,1.1819,0,0,0,0,0,0,1.1966,1.1962,1.1959,1.194,1.1934,1.1916,1.1908,1.1904,1.1896,1.1894,1.1874,1.187,1.1857,1.1843,1.1839,1.1837,1.1834,1.1805,1.1805,1.1805,1.1819,1.182,1.1821,0,0,0,0,0,1.1968,1.1964,1.1959,1.1955,1.1931,1.1916,1.1912,1.1899,1.1896,1.1893,1.1879,1.1871,1.184,1.1842,1.1837,1.1835,1.1805,1.1805,1.1805,1.1818,1.182,1.1821,0,0,0,0,0,0,1.1984,1.1962,1.1956,1.1946,1.1933,1.1913,1.1909,1.19,1.1887,1.1887,1.1869,1.1865,1.1853,1.1843,1.1845,1.1826,1.1821,1.182,1.1833,1.1834,1.1835,1.1838,1.1833,0,0,0,0,0,1.1986,1.1977,1.1958,1.1951,1.1945,1.1928,1.1921,1.1911,1.1897,1.1891,1.1877,1.1862,1.1849,1.1841,1.1828,1.1817,1.1812,1.1813,1.1814,1.1815,1.1814,1.1807,1.1807,1.1804,1.1804,1.1804,0,0,1.1991,1.1978,1.1973,1.1953,1.1942,1.1932,1.1923,1.1913,1.1905,1.1889,1.1876,1.1865,1.1848,1.1835,1.1829,1.1826,1.1814,1.1815,1.1816,1.1815,1.1807,1.1807,1.1807,1.1804,1.1804,1.1804,0,0,1.1994,1.1984,1.1977,1.1966,1.1949,1.1938,1.1936,1.1917,1.1909,1.1896,1.1884,1.1873,1.1852,1.184,1.1831,1.1829,1.182,1.1825,1.1829,1.1822,1.1823,1.1823,1.1821,1.1821,1.1824,1.1824,1.1824,0,1.2002,1.1987,1.1974,1.1964,1.1955,1.1941,1.1933,1.1923,1.1903,1.1897,1.1894,1.1866,1.1853,1.1838,1.1837,1.1831,1.1827,1.1827,1.1824,1.1824,1.1824,1.1822,1.1822,1.1825,1.1825,1.1825,1.1825,0,1.1997,1.1987,1.1983,1.1964,1.1955,1.1946,1.193,1.1923,1.1914,1.1903,1.1888,1.1873,1.1856,1.1852,1.1843,1.1834,1.1833,1.1827,1.1822,1.1825,1.1823,1.1823,1.1826,1.1826,1.1826,1.1825,0,0,1.201,1.1984,1.1982,1.1974,1.1954,1.1945,1.1935,1.192,1.1913,1.1899,1.189,1.1872,1.1866,1.1856,1.1845,1.1839,1.1838,1.1834,1.1833,1.1835,1.1827,1.1831,1.1831,1.1832,1.1832,1.1832,1.1828,0,1.201,1.1992,1.1979,1.1966,1.1956,1.1943,1.1934,1.192,1.1909,1.1898,1.1885,1.1872,1.1866,1.186,1.1853,1.184,1.1836,1.184,1.1822,1.1821,1.1827,1.183,1.1835,1.1832,1.1827,1.1827,1.1827,0,1.2008,1.1995,1.1981,1.1963,1.1958,1.195,1.1934,1.1924,1.1908,1.1901,1.1889,1.1878,1.1866,1.1862,1.1844,1.1847,1.1839,1.1831,1.1831,1.1828,1.1824,1.1827,1.1831,1.1831,1.1826,1.1826,1.1826,0,1.2018,1.1997,1.1986,1.1979,1.1957,1.1952,1.1942,1.1926,1.1917,1.1903,1.1897,1.1882,1.1873,1.1861,1.1845,1.1844,1.1829,1.1824,1.1821,1.1822,1.1819,1.1819,1.1821,1.1814,1.1814,1.1814,1.1814,0,1.2019,1.2011,1.199,1.1983,1.1974,1.1958,1.1949,1.1938,1.1924,1.1914,1.1901,1.1891,1.1872,1.186,1.1848,1.1834,1.1831,1.1823,1.182,1.1824,1.1825,1.1819,1.1818,1.1814,1.1814,1.1814,1.1814,0,1.2028,1.2014,1.2001,1.1982,1.1976,1.197,1.1952,1.1945,1.1933,1.192,1.1916,1.1898,1.1883,1.1867,1.1846,1.1838,1.1825,1.182,1.1831,1.1829,1.1827,1.1827,1.1824,1.1823,1.1817,1.1818,1.1818,0,1.203,1.2024,1.2003,1.1996,1.1987,1.1975,1.1967,1.1951,1.1942,1.1923,1.1917,1.1902,1.1888,1.1865,1.1849,1.1833,1.1828,1.1828,1.1825,1.1829,1.1827,1.1828,1.1826,1.1829,1.1829,1.1829,1.1829,0,1.2034,1.2028,1.2016,1.2001,1.1991,1.1979,1.1966,1.1961,1.1942,1.1933,1.1918,1.1908,1.1887,1.1871,1.1853,1.1842,1.1832,1.183,1.1828,1.1832,1.1838,1.1835,1.1832,1.183,1.183,1.183,1.183,1.183,1.2039,1.2033,1.2017,1.2005,1.1993,1.1982,1.1973,1.1961,1.1948,1.1931,1.1922,1.1907,1.189,1.1865,1.1854,1.1841,1.1838,1.1836,1.1835,1.1835,1.1836,1.1841,1.1838,1.1838,1.1838,1.1838,1.1838,0,1.2042,1.2032,1.202,1.2003,1.1993,1.1985,1.197,1.1962,1.1949,1.1935,1.1922,1.1904,1.1889,1.1872,1.1855,1.1848,1.1843,1.1844,1.1844,1.1841,1.184,1.1843,1.1848,1.1848,1.1848,1.1848,1.1848,1.1848,1.2043,1.2031,1.2023,1.2005,1.1994,1.198,1.1972,1.1961,1.1949,1.1931,1.1918,1.1907,1.1891,1.1873,1.1858,1.1853,1.1847,1.185,1.1844,1.1842,1.1842,1.1841,1.1843,1.1849,1.1849,1.1846,1.1846,1.1846]}]]